Overview Statistics Trail Chart Weather Telemetry Raw packets
 

This is the latest recevied weather packets stored in our database for station/object W0WC. If no packets are shown the sender has not sent any weather packets the latest 10 day(s).

<< 101 102 103 104 105 106 107 >>
Time Temp. Humidity Pressure Rain* Wind** Luminosity Snow
1787929779 27.22° C 57% 1021.7 hPa 0 mm - 451 W/m² -
1787929475 27.22° C 57% 1021.5 hPa 0 mm - 424 W/m² -
1787929172 27.22° C 58% 1021.7 hPa 0 mm - 388 W/m² -
1787928867 26.67° C 59% 1021.6 hPa 0 mm - 384 W/m² -
1787928567 26.11° C 60% 1021.5 hPa 0 mm - 358 W/m² -
1787928265 26.67° C 60% 1021.5 hPa 0 mm - 211 W/m² -
1787927964 26.67° C 60% 1021.5 hPa 0 mm - 306 W/m² -
1787927659 26.11° C 60% 1021.5 hPa 0 mm - 360 W/m² -
1787927360 26.11° C 60% 1021.6 hPa 0 mm - 337 W/m² -
1787927056 25.56° C 62% 1021.5 hPa 0 mm - 327 W/m² -
1787926756 25.56° C 62% 1021.6 hPa 0 mm - 286 W/m² -
1787926455 25.56° C 62% 1021.6 hPa 0 mm - 287 W/m² -
1787926154 25° C 63% 1021.7 hPa 0 mm - 269 W/m² -
1787925853 25.56° C 62% 1021.7 hPa 0 mm - 250 W/m² -
1787925553 25° C 64% 1021.6 hPa 0 mm - 237 W/m² -
1787925248 24.44° C 65% 1021.6 hPa 0 mm - 218 W/m² -
1787924947 23.89° C 65% 1021.8 hPa 0 mm - 207 W/m² -
1787924642 23.89° C 65% 1021.9 hPa 0 mm - 194 W/m² -
1787924337 23.89° C 66% 1021.7 hPa 0 mm - 179 W/m² -
1787924032 23.89° C 66% 1021.8 hPa 0 mm - 166 W/m² -
1787923726 23.33° C 67% 1021.8 hPa 0 mm - 153 W/m² -
1787923422 22.78° C 68% 1021.9 hPa 0 mm - 140 W/m² -
1787923113 22.78° C 68% 1021.8 hPa 0 mm - 128 W/m² -
1787922806 22.78° C 69% 1021.6 hPa 0 mm - 117 W/m² -
1787922505 22.22° C 71% 1021.4 hPa 0 mm - 106 W/m² -

* Rain latest hour (hover to see other rain measurements)
** Current wind speed in m/s (hover to see current wind gust speed)